User: anonymous
Location: Starry Hill Observatory
(46.8582°N, 122.3590°W)
Time: 12:53:57
(UTC-07:00)
Language:

Cosmos 1300 Rocket - Orbit

View from above orbital plane
View from above orbital plane
View from above satellite
View from above satellite

Ground track
Ground track

The orbit data is extracted from the following two-line orbital elements,

1 12786U 81082B   14272.43754916  .00000502  00000-0  57181-4 0    15
2 12786 082.4916 182.2029 0016082 288.6772 071.2697 14.84185970787671
Epoch (UTC): 29 September 2014 10:30:04
Eccentricity: 0.0016082
inclination: 82.4916°
perigee height: 605 km
apogee height: 627 km
right ascension of ascending node: 182.2029°
argument of perigee: 288.6772°
revolutions per day: 14.84185970
mean anomaly at epoch: 71.2697°
orbit number at epoch: 78767

The dashed part of the orbit path shows where the satellite is in the earth's shadow,  

DLR